Regional Weather Roundup
Issued by NWS Sioux Falls, SD

Home | Current Version | Previous Version | Text Only | Print | Product List | Glossary Off
Versions: 1 2 3 4 5 6 7 8 9 10 11 12 13 14 15 16 17 18 19 20 21 22 23 24 25 26 27 28 29 30 31 32 33 34 35 36 37 38 39 40 41 42 43 44 45 46 47 48 49 50

000
ASUS43 KFSD 251002
RWRFSD

WEATHER ROUNDUP FOR SE SOUTH DAKOTA/SW MINNESOTA/NW IOWA
NATIONAL WEATHER SERVICE SIOUX FALLS SD
500 AM CDT MON SEP 25 2017

NOTE: "FAIR" INDICATES FEW OR NO CLOUDS BELOW 12,000 FEET WITH NO
SIGNIFICANT WEATHER AND OR OBSTRUCTIONS TO VISIBILITY.


SDZ038>040-050-052>070-251100-
SOUTHEAST SOUTH DAKOTA

CITY           SKY/WX    TMP DP  RH WIND       PRES   REMARKS
BROOKINGS      LGT RAIN  50  49  96 N8        30.04S
CHAMBERLAIN    CLOUDY    51  49  93 N10       30.07S
HURON          CLOUDY    50  48  93 N10       30.08R
MADISON        LGT RAIN  50  50 100 N9        30.03F
MITCHELL       LGT RAIN  51  50  96 N9        30.07R
SIOUX FALLS    LGT RAIN  54  53  97 N10       30.01R
WINNER         CLOUDY    51  47  86 N8        30.09R
YANKTON        LGT RAIN  52  51  97 NW10      30.01F
$$

MNZ071-072-080-081-089-090-097-098-251100-
SOUTHWEST MINNESOTA

CITY           SKY/WX    TMP DP  RH WIND       PRES   REMARKS
FAIRMONT       CLOUDY    56  55  97 N12       29.99R
JACKSON        CLOUDY    52  52 100 CALM      30.01R
LUVERNE        RAIN      52  50  93 N6        30.01S
MARSHALL       LGT RAIN  52  51  97 N10       30.03R
MONTEVIDEO     DRIZZLE   52  48  87 N9        30.04R
PIPESTONE      LGT RAIN  52  50  93 NE8       30.01S
REDWOOD FALLS  RAIN      53  51  93 NW9       30.02R FOG
TRACY          RAIN      53  53 100 N8        30.02S
WINDOM         LGT RAIN  54  52  94 N9        30.02R
$$

IAZ001>003-012>014-020>022-031-032-NEZ013-014-SDZ071-251100-
NORTHWEST IOWA

CITY           SKY/WX    TMP DP  RH WIND       PRES   REMARKS
CHEROKEE       DRIZZLE   59  59 100 NE7       29.96S
DENISON        LGT RAIN  63  63 100 W7        29.99R
ESTHERVILLE    CLOUDY    56  56 100 N9        29.97S
LE MARS        LGT RAIN  57  55  94 E13       29.95F
ORANGE CITY    LGT RAIN  57  57 100 E10       29.97S
SHELDON        RAIN      55  54  94 N10G17    29.96F
SIOUX CITY     RAIN      57  57 100 NE9       29.96F
SPENCER        LGT RAIN  57  55  93 N10       29.99R
STORM LAKE     CLOUDY    61  61 100 N7        29.96S
$$

ABBREVIATIONS USED IN REMARKS
   TC - TEMPERATURE IN CELSIUS
  WCI - WIND CHILL INDEX
   HX - HEAT INDEX
  VSB - VISIBILITY





USA.gov is the U.S. government's official web portal to all federal, state and local government web resources and services.